TimeEST,TemperatureF,Dew PointF,Humidity,Sea Level PressureIn,VisibilityMPH,Wind Direction,Wind SpeedMPH,Gust SpeedMPH,PrecipitationIn,Events,Conditions,WindDirDegrees,DateUTC
12:53 AM,19.0,12.9,77,29.84,10.0,NNW,11.5,-,N/A,,Mostly Cloudy,340,2012-02-11 05:53:00
1:13 AM,17.6,12.2,79,29.80,10.0,NNW,15.0,-,N/A,,Overcast,340,2012-02-11 06:13:00
1:53 AM,17.1,12.0,81,29.84,10.0,NNW,13.8,-,N/A,,Overcast,340,2012-02-11 06:53:00
2:29 AM,15.8,10.4,79,29.81,10.0,NNW,11.5,-,N/A,,Overcast,330,2012-02-11 07:29:00
2:53 AM,16.0,10.9,81,29.86,10.0,NNW,13.8,-,N/A,,Overcast,340,2012-02-11 07:53:00
3:18 AM,14.0,8.6,79,29.82,2.0,NNW,17.3,-,0.00,Snow,Light Snow,330,2012-02-11 08:18:00
3:32 AM,12.2,8.6,85,29.82,2.0,NNW,16.1,-,0.00,Snow,Light Snow,330,2012-02-11 08:32:00
3:49 AM,12.2,6.8,79,29.82,4.0,North,11.5,-,0.00,Snow,Light Snow,350,2012-02-11 08:49:00
3:53 AM,12.0,6.1,77,29.87,5.0,NNW,16.1,20.7,0.00,Snow,Light Snow,340,2012-02-11 08:53:00
4:53 AM,9.0,3.9,80,29.86,3.0,NNW,15.0,-,0.00,Snow,Light Snow,340,2012-02-11 09:53:00
5:04 AM,8.6,3.2,79,29.82,3.0,North,15.0,-,0.00,Snow,Light Snow,350,2012-02-11 10:04:00
5:53 AM,7.0,1.9,80,29.86,3.0,NNW,17.3,24.2,0.00,Snow,Light Snow,340,2012-02-11 10:53:00
6:53 AM,5.0,-0.0,80,29.87,5.0,North,15.0,-,0.00,Snow,Light Snow,350,2012-02-11 11:53:00
7:41 AM,3.2,-2.2,78,29.84,1.8,NNW,18.4,26.5,0.00,Snow,Light Snow,340,2012-02-11 12:41:00
7:43 AM,3.2,-2.2,78,29.83,1.2,NNW,18.4,-,0.00,Snow,Light Snow,340,2012-02-11 12:43:00
7:53 AM,3.9,-2.0,76,29.88,1.0,NNW,17.3,-,0.00,Snow,Light Snow,340,2012-02-11 12:53:00
8:05 AM,3.2,-2.2,78,29.83,1.8,NNW,16.1,-,0.00,Snow,Light Snow,340,2012-02-11 13:05:00
8:14 AM,3.2,-2.2,78,29.83,3.0,NNW,18.4,25.3,0.00,Snow,Light Snow,340,2012-02-11 13:14:00
8:29 AM,3.2,-2.2,78,29.83,2.0,NNW,19.6,-,0.00,Snow,Light Snow,340,2012-02-11 13:29:00
8:53 AM,3.9,-2.9,73,29.88,7.0,NNW,13.8,-,0.00,,Overcast,340,2012-02-11 13:53:00
9:53 AM,5.0,-2.9,70,29.88,10.0,NNW,11.5,-,0.00,,Overcast,340,2012-02-11 14:53:00
10:53 AM,5.0,-2.9,70,29.88,10.0,NNW,12.7,17.3,N/A,,Overcast,330,2012-02-11 15:53:00
11:53 AM,6.1,-2.9,67,29.85,10.0,North,15.0,-,N/A,,Overcast,350,2012-02-11 16:53:00
12:53 PM,8.1,-2.0,64,29.82,10.0,NNW,11.5,19.6,N/A,,Overcast,340,2012-02-11 17:53:00
1:53 PM,10.9,-0.9,59,29.80,10.0,NNW,10.4,-,N/A,,Overcast,330,2012-02-11 18:53:00
2:15 PM,10.4,-0.4,62,29.74,10.0,NNW,11.5,17.3,N/A,,Overcast,340,2012-02-11 19:15:00
2:53 PM,10.9,-0.9,59,29.78,10.0,NNW,11.5,-,N/A,,Overcast,340,2012-02-11 19:53:00
3:53 PM,10.9,-0.0,61,29.77,10.0,North,10.4,-,N/A,,Overcast,350,2012-02-11 20:53:00
4:53 PM,9.0,-0.9,64,29.76,10.0,NNW,13.8,-,N/A,,Overcast,330,2012-02-11 21:53:00
5:53 PM,6.1,-2.0,69,29.75,10.0,NNW,15.0,-,N/A,,Mostly Cloudy,340,2012-02-11 22:53:00
6:53 PM,3.0,-4.0,73,29.75,10.0,NNW,12.7,-,N/A,,Partly Cloudy,340,2012-02-11 23:53:00
7:53 PM,1.0,-5.1,75,29.73,10.0,NNW,15.0,-,N/A,,Clear,340,2012-02-12 00:53:00
8:53 PM,-0.0,-8.0,69,29.71,10.0,NNW,12.7,20.7,N/A,,Clear,330,2012-02-12 01:53:00
9:53 PM,-0.9,-8.0,72,29.69,10.0,NNW,11.5,-,N/A,,Clear,340,2012-02-12 02:53:00
10:53 PM,-0.9,-8.0,72,29.65,10.0,NNW,15.0,-,N/A,,Clear,340,2012-02-12 03:53:00
11:53 PM,-0.0,-8.0,69,29.61,10.0,NNW,16.1,26.5,N/A,,Clear,340,2012-02-12 04:53:00